Vorticity
7 6 7 7 7 6 6 7 7 9 10 9 9 8 9 8 9 9 11 15 11 16 15 17 18 12 12 12 13 16 16 25 18 -3 4 4 12 18 19 15 10 5 6
7 6 7 7 7 6 6 6 7 7 9 10 10 10 8 9 9 9 8 10 15 10 15 16 17 20 9 9 11 10 11 13 17 22 26 8 5 4 6 11 13 16 15
7 7 7 7 7 6 6 6 7 7 7 9 10 11 12 10 9 9 8 8 9 13 12 13 15 14 21 13 9 6 9 6 10 12 17 23 22 13 6 5 4 11 14
7 7 7 7 6 6 6 6 6 6 7 7 8 9 10 11 12 9 8 8 8 10 11 9 12 15 16 20 14 6 8 9 19 13 13 15 15 16 16 14 18 15 10
7 7 7 6 6 6 6 6 6 6 6 7 8 8 9 10 9 11 9 8 9 8 10 12 8 8 9 12 20 19 16 4 7 1 4 7 6 9 14 16 13 13 8
7 6 6 6 6 6 5 5 6 6 7 7 7 8 8 9 10 10 11 11 9 8 8 8 14 12 9 8 7 14 29 21 18 14 12 11 9 6 6 7 7 7 9
6 6 6 6 6 6 6 7 7 7 7 7 7 7 8 8 9 9 10 11 11 10 9 8 6 8 15 14 10 5 9 24 26 20 14 14 14 14 17 16 6 6 14
7 6 6 6 6 6 7 7 7 7 7 7 7 6 6 7 8 8 9 9 10 10 11 10 9 8 6 12 14 13 7 8 12 24 22 18 15 13 15 15 13 20 16
6 6 6 6 6 6 6 7 7 7 6 6 6 6 6 5 5 7 7 8 9 8 10 11 11 10 8 8 9 12 11 8 8 9 9 20 22 19 19 14 13 15 17
6 6 6 6 6 6 6 6 6 6 6 6 5 6 6 6 6 6 7 7 9 8 8 6 9 11 11 10 9 5 13 13 10 9 10 11 12 10 13 17 21 19 17
6 6 6 6 6 6 6 6 6 6 6 6 6 6 7 7 6 6 7 7 8 9 8 11 12 6 11 11 10 9 8 4 11 12 12 12 12 15 16 16 15 14 12
6 6 6 6 6 6 6 6 6 6 6 5 6 6 5 6 7 7 7 8 9 11 7 11 10 16 8 9 12 10 9 8 7 3 6 6 7 7 8 9 10 12 12
8 7 7 7 6 6 6 6 6 6 6 6 6 6 6 6 8 7 8 9 9 11 11 10 12 9 13 14 5 12 11 10 9 9 9 7 6 5 4 3 4 4 3
8 7 8 8 7 7 7 6 6 6 7 6 7 7 8 8 8 9 10 11 13 15 13 12 11 12 9 11 19 5 10 12 11 10 10 10 10 9 10 10 10 10 9
8 7 7 8 8 7 8 7 7 7 7 8 8 8 9 9 9 10 11 13 15 17 15 15 15 13 9 9 11 18 5 9 9 9 9 9 10 9 8 10 10 11 10
12 9 8 8 7 7 7 7 8 9 8 8 8 10 9 9 10 10 12 13 15 16 17 21 18 15 13 11 10 9 16 4 9 8 9 9 9 10 9 8 9 10 10
11 11 12 11 9 8 9 10 10 5 9 9 10 10 9 9 10 11 13 13 14 18 21 19 18 16 14 12 12 8 14 12 5 10 9 9 9 9 8 8 9 9 10
12 10 12 12 13 12 11 10 12 13 12 9 9 10 11 11 12 12 14 13 15 18 18 20 17 15 14 13 13 6 10 13 8 6 9 8 8 8 9 8 9 9 10
11 10 11 11 12 13 13 13 12 12 13 14 13 11 12 11 12 11 13 15 16 17 19 20 18 15 14 14 13 11 5 10 16 7 8 9 8 8 8 9 9 9 9
9 10 10 10 10 11 13 12 11 12 13 13 12 13 12 10 11 10 12 13 14 17 20 18 17 16 14 15 13 8 11 4 12 12 6 9 8 8 8 9 10 11 10
9 9 10 10 10 10 11 12 11 11 11 11 10 10 9 11 10 10 11 15 16 17 16 16 16 15 14 15 14 10 10 8 7 18 6 8 9 10 9 9 9 10 11
10 9 10 10 10 9 10 11 11 10 10 9 9 9 8 9 10 10 11 15 15 16 14 14 17 15 14 15 12 11 11 8 8 15 10 6 9 10 10 10 9 10 10
9 10 9 10 10 10 10 10 10 9 9 9 9 9 10 10 9 9 11 14 15 15 13 13 14 15 14 15 14 12 11 8 9 13 14 7 7 9 10 11 11 10 10
9 10 10 9 10 10 10 10 9 8 9 9 9 9 9 10 9 10 11 13 15 15 14 12 13 13 13 13 13 12 11 10 8 13 14 10 7 7 9 9 10 11 10
9 10 9 9 9 9 10 9 9 9 9 10 9 9 9 10 10 10 11 12 15 15 14 12 12 12 12 11 12 11 11 13 10 11 13 12 9 7 8 9 10 10 10
10 10 9 9 9 10 10 8 9 9 9 10 9 9 9 10 10 9 10 13 14 15 13 13 11 13 12 11 11 11 10 12 13 12 12 13 12 10 10 10 10 10 10
Height
3109 3105 3102 3098 3095 3090 3086 3081 3076 3071 3065 3059 3052 3046 3040 3034 3026 3019 3012 3004 2997 2991 2987 2983 2977 2973 2972 2970 2968 2967 2966 2966 2966 2968 2969 2970 2971 2973 2975 2978 2981 2984 2986
3107 3104 3101 3098 3095 3091 3086 3081 3076 3071 3066 3060 3053 3047 3041 3035 3029 3021 3014 3007 3000 2994 2988 2984 2980 2976 2972 2970 2969 2967 2966 2965 2965 2965 2966 2968 2969 2970 2972 2974 2976 2978 2980
3104 3102 3100 3096 3093 3090 3085 3081 3077 3071 3066 3060 3054 3049 3043 3036 3030 3023 3016 3009 3003 2997 2991 2985 2980 2977 2974 2970 2968 2967 2965 2964 2963 2962 2963 2964 2965 2966 2968 2970 2972 2974 2976
3102 3100 3098 3095 3092 3088 3085 3081 3076 3071 3065 3060 3054 3049 3043 3036 3030 3024 3018 3011 3006 3000 2995 2989 2983 2979 2974 2972 2969 2966 2965 2964 2962 2961 2961 2961 2962 2963 2964 2965 2966 2968 2970
3102 3099 3097 3094 3091 3088 3084 3080 3075 3070 3065 3059 3053 3048 3043 3037 3031 3025 3019 3013 3008 3003 2997 2992 2987 2981 2977 2973 2970 2967 2964 2962 2961 2961 2960 2960 2960 2960 2961 2962 2962 2964 2964
3100 3099 3096 3094 3091 3087 3083 3079 3075 3070 3065 3060 3054 3049 3043 3038 3032 3027 3021 3015 3010 3005 3000 2995 2990 2985 2980 2975 2970 2967 2964 2961 2960 2958 2958 2958 2957 2957 2958 2959 2960 2960 2962
3098 3097 3095 3093 3090 3087 3083 3079 3075 3070 3066 3061 3055 3050 3044 3039 3033 3028 3022 3017 3012 3006 3002 2996 2991 2986 2981 2977 2972 2968 2964 2961 2959 2957 2955 2954 2954 2953 2953 2955 2955 2956 2957
3096 3094 3093 3091 3088 3085 3082 3078 3074 3070 3066 3061 3056 3050 3045 3040 3034 3028 3022 3017 3012 3007 3002 2997 2992 2988 2984 2979 2974 2970 2966 2963 2960 2957 2954 2953 2952 2951 2950 2950 2950 2951 2951
3092 3091 3089 3087 3085 3082 3079 3076 3072 3068 3064 3060 3055 3050 3044 3039 3034 3028 3022 3017 3012 3008 3003 2998 2993 2989 2985 2981 2976 2971 2967 2964 2962 2959 2956 2954 2952 2950 2949 2948 2948 2948 2947
3088 3087 3085 3083 3081 3079 3076 3073 3070 3066 3061 3057 3053 3048 3042 3037 3033 3027 3022 3017 3013 3008 3003 2998 2993 2988 2985 2981 2978 2974 2970 2967 2963 2960 2958 2955 2953 2951 2949 2948 2946 2945 2945
3085 3083 3081 3080 3077 3075 3073 3069 3066 3063 3059 3054 3049 3045 3040 3035 3029 3024 3019 3015 3011 3007 3002 2998 2993 2989 2984 2981 2977 2974 2971 2967 2964 2962 2959 2957 2955 2952 2950 2948 2947 2945 2944
3081 3080 3078 3077 3074 3072 3070 3066 3064 3060 3056 3052 3047 3041 3036 3031 3026 3021 3015 3011 3008 3004 3000 2997 2991 2987 2983 2979 2976 2973 2970 2967 2965 2962 2960 2958 2956 2953 2951 2948 2946 2944 2942
3077 3076 3075 3073 3071 3069 3066 3063 3060 3056 3053 3049 3045 3039 3035 3029 3023 3017 3012 3008 3003 3000 2996 2993 2989 2985 2981 2978 2975 2972 2970 2967 2964 2962 2960 2958 2956 2954 2951 2949 2946 2943 2941
3073 3072 3070 3068 3066 3064 3062 3059 3056 3052 3048 3045 3040 3035 3030 3025 3020 3014 3010 3005 3000 2995 2991 2989 2984 2981 2978 2976 2973 2971 2969 2966 2964 2962 2960 2957 2955 2953 2950 2948 2945 2942 2940
3069 3067 3066 3064 3062 3060 3057 3055 3052 3048 3045 3040 3036 3031 3026 3021 3017 3009 3004 2999 2995 2991 2987 2984 2980 2977 2975 2973 2971 2968 2966 2964 2962 2960 2958 2956 2954 2951 2948 2946 2943 2941 2938
3063 3062 3060 3059 3057 3055 3053 3050 3047 3044 3040 3035 3032 3026 3021 3016 3012 3005 3000 2995 2990 2986 2983 2979 2976 2973 2972 2971 2969 2965 2963 2962 2960 2958 2957 2955 2952 2950 2947 2943 2940 2937 2935
3057 3055 3054 3053 3051 3049 3047 3046 3044 3039 3035 3030 3027 3022 3017 3012 3008 3002 2997 2991 2986 2982 2979 2974 2971 2969 2967 2967 2965 2963 2961 2959 2958 2957 2955 2953 2951 2948 2945 2942 2939 2936 2932
3052 3050 3048 3047 3046 3044 3043 3041 3039 3036 3032 3027 3022 3018 3013 3008 3005 2999 2994 2988 2983 2978 2974 2971 2967 2965 2964 2963 2963 2961 2960 2957 2956 2955 2953 2951 2949 2947 2944 2940 2937 2934 2930
3047 3045 3044 3042 3040 3039 3038 3036 3033 3030 3027 3024 3019 3014 3010 3005 3001 2996 2991 2986 2981 2976 2972 2968 2965 2963 2962 2960 2960 2959 2959 2957 2955 2953 2952 2950 2948 2945 2942 2939 2935 2931 2927
3042 3040 3039 3037 3035 3034 3033 3031 3028 3025 3022 3019 3015 3011 3008 3003 2999 2994 2989 2984 2978 2974 2970 2966 2963 2961 2960 2959 2958 2957 2957 2956 2954 2952 2950 2948 2945 2943 2940 2937 2934 2931 2926
3036 3035 3034 3033 3031 3029 3028 3026 3024 3021 3019 3016 3012 3009 3006 3002 2998 2993 2988 2983 2977 2972 2968 2965 2962 2960 2958 2958 2957 2955 2954 2953 2952 2950 2949 2947 2945 2942 2939 2935 2932 2928 2925
3031 3030 3029 3028 3026 3024 3023 3022 3020 3018 3016 3013 3010 3007 3002 2999 2995 2990 2986 2980 2975 2971 2968 2964 2962 2960 2959 2957 2956 2954 2953 2952 2951 2949 2947 2945 2943 2941 2938 2934 2931 2927 2923
3025 3024 3024 3022 3021 3020 3019 3017 3016 3014 3012 3010 3007 3004 3001 2997 2993 2988 2984 2979 2974 2971 2967 2963 2961 2960 2958 2957 2955 2955 2952 2951 2949 2947 2945 2944 2942 2939 2936 2933 2930 2926 2922
3018 3018 3018 3017 3016 3015 3014 3013 3012 3010 3009 3007 3004 3001 2998 2995 2990 2986 2982 2978 2974 2971 2967 2964 2961 2959 2958 2957 2955 2953 2952 2949 2947 2945 2943 2942 2939 2937 2934 2931 2928 2925 2921
3011 3012 3012 3011 3011 3010 3009 3008 3007 3007 3006 3004 3001 2998 2996 2993 2989 2984 2980 2977 2973 2970 2966 2963 2961 2958 2957 2956 2954 2952 2951 2949 2946 2944 2941 2939 2937 2935 2932 2929 2926 2923 2919
3004 3005 3005 3005 3005 3005 3004 3003 3003 3002 3001 3000 2998 2996 2994 2991 2987 2983 2979 2976 2973 2970 2966 2962 2960 2958 2956 2954 2953 2951 2949 2947 2945 2942 2940 2937 2935 2933 2931 2928 2925 2922 2918